Location: Unspecified
(49.8670°N, 0.0000°E)
Time: 21:12:09
(UTC+00:00)

S-56A Canister/Altair - Pass Details

Date: 16 June 2019
Orbit: 632 x 2500 km, 38.9° (Epoch: 17 July)

Event Time Altitude Azimuth Distance (km) Brightness Sun altitude
Rises 20:57:49 0° 256° (WSW) 3,331 11.2 -6.3°
Reaches altitude 10° 21:01:03 10° 240° (WSW) 2,205 10.0 -6.6°
Maximum altitude 21:04:34 20° 193° (SSW) 1,515 8.7 -7.0°
Drops below altitude 10° 21:07:48 10° 145° (SE) 2,005 9.0 -7.3°
Enters shadow 21:08:01 - 143° (SE) 2,066 9.0 -7.4°
Sets 21:10:34 0° 128° (SE) 2,930 - -7.6°
